Lexington Weather

Lexington, Massachusetts, USA

38°F
1/28/2023 10:05pm 
  • Lexington Conditions: Clear
  • Temperature: 38.3°F / 3.5°CColder 0.5°F than last hour.
  • Dew Point: 27.9°FIncreased 0.6°Fsince last hour.
  • Relative Humidity: 66%Increased 3.0% since last hour.
  • Wind: Calm, 10-min avg: Calm, gust: None
  • Barometer: 30.25 in Steady
  • Visibility: 10 miles
  • Rain Today: 0.00 in
  •   

Regional Weather Roundup
for Boston, MA

        
000
ASUS41 KBOX 281310
RWRBOX

REGIONAL WEATHER ROUNDUP
NATIONAL WEATHER SERVICE BOSTON/NORTON MA
800 AM EST SAT JAN 28 2023

NOTE:  "FAIR" INDICATES FEW OR NO CLOUDS BELOW 12,000 FEET WITH NO 
SIGNIFICANT WEATHER AND/OR OBSTRUCTIONS TO VISIBILITY.

MAZALL-281400-
EASTERN MASSACHUSETTS
  
CITY           SKY/WX    TMP DP  RH WIND       PRES   REMARKS
BOSTON         MOCLDY    37  26  64 S13       30.16S WCI  29          
BEVERLY        CLOUDY    36  23  59 SW12G20   30.14S WCI  28          
LAWRENCE       CLOUDY    35  23  61 SW9       30.14S WCI  28          
BEDFORD        CLOUDY    35  24  64 S8        30.13S WCI  29          
NORWOOD        CLOUDY    38  25  59 S10       30.16S WCI  31          
MARSHFIELD     CLOUDY    37  27  65 SW13G18   30.18S WCI  29          
PLYMOUTH       CLOUDY    37  27  67 S6        30.18F                  
TAUNTON          N/A    N/A N/A N/A MISG      30.18S                  
NEW BEDFORD    MOCLDY    38  31  76 SW9       30.19F WCI  31          
$$

MAZALL-281400-
CAPE COD AND THE ISLANDS
  
CITY           SKY/WX    TMP DP  RH WIND       PRES   REMARKS
FALMOUTH       MOCLDY    34  28  80 S8        30.20F WCI  27          
HYANNIS        MOCLDY    39  30  70 S9        30.20S                  
CHATHAM        MOCLDY    42  31  64 SW10      30.22S                  
PROVINCETOWN   CLOUDY    39  29  67 SW16      30.20F WCI  30          
NANTUCKET      CLEAR     41  29  62 SW16      30.25R                  
MARTHAS VNYRD  CLOUDY    42  31  64 S15       30.22S                  
$$
 
MAZALL-281400-
CENTRAL AND WESTERN MASSACHUSETTS
  
CITY           SKY/WX    TMP DP  RH WIND       PRES   REMARKS
WORCESTER      CLOUDY    33  23  66 SW17      30.09S WCI  22          
FITCHBURG      PTCLDY    31  21  66 E5        30.12R WCI  26          
ORANGE         CLOUDY    33  21  61 S14       30.11R WCI  23          
SPRINGFIELD    CLOUDY    34  23  65 S8        30.12R WCI  27          
WESTFIELD      CLOUDY    34  22  61 S10       30.14R WCI  26          
NORTH ADAMS    CLOUDY    31  21  66 SE5       30.08R WCI  26          
PITTSFIELD     CLOUDY    32  18  56 SW12      30.06R WCI  23          
$$
 
RIZALL-281400-
RHODE ISLAND
  
CITY           SKY/WX    TMP DP  RH WIND       PRES   REMARKS
PROVIDENCE     MOCLDY    34  27  75 S8        30.19S WCI  27          
NEWPORT        CLOUDY    41  28  60 SW8G21    30.19S                  
SMITHFIELD     CLOUDY    34  26  72 VRB7      30.15S WCI  28          
WESTERLY       CLOUDY    43  29  57 SW14G20   30.20R                  
$$
 
CTZALL-281400-
CONNECTICUT
  
CITY           SKY/WX    TMP DP  RH WIND       PRES   REMARKS
BRADLEY INTL   MOCLDY    36  24  62 S9        30.15S WCI  29          
HARTFORD       CLOUDY    38  27  64 SW6       30.17S                  
BRIDGEPORT     CLOUDY    41  30  65 SW13      30.19R                  
DANBURY        CLOUDY    37  22  54 SW10      30.17R WCI  30          
GROTON         MOCLDY    43  30  60 SW13      30.19S                  
NEW HAVEN      CLOUDY    43  32  65 SW16      30.18R                  
CHESTER        MOCLDY    39  32  75 S9G16     30.16F                  
MERIDEN        MOCLDY    36  27  69 S5        30.17S                  
WILLIMANTIC    CLOUDY    36  27  69 S3        30.17S                  
OXFORD         MOCLDY    34  24  67 VRB6      30.15R WCI  29          
$$

MEZ002-015-021-024-NHZ003-005-008-011-012-014-VTZ005-008-281400-
NORTHERN NEW ENGLAND
  
CITY           SKY/WX    TMP DP  RH WIND       PRES   REMARKS
PORTLAND ME    FLURRIES  34  23  64 S9G17     30.11F WCI  27          
BANGOR ME      MOCLDY    32  28  85 S9        30.09F WCI  24          
CONCORD NH     CLOUDY    29  22  75 SE7       30.09F WCI  22          
MANCHESTER NH  CLOUDY    33  23  66 S9        30.10S WCI  25          
NASHUA NH      MOCLDY    30  28  92 CALM      30.13S                  
PORTSMOUTH NH  CLOUDY    33  24  69 S5        30.12S WCI  28          
JAFFREY NH     MOCLDY    32  20  61 S8        30.06R WCI  25          
KEENE NH       MOCLDY    27  23  85 CALM      30.10R                  
BURLINGTON VT  FLURRIES  32  23  69 S18G26    29.97R WCI  20          
MT. WASHINGTON SNOW      10  10 100 W44G55      N/A  VSB 1/16WCI -15  
$$

NYZ052-076-281400-
EASTERN NEW YORK
  
CITY           SKY/WX    TMP DP  RH WIND       PRES   REMARKS
ALBANY         MOCLDY    33  20  58 SE10      30.08R WCI  25          
NEW YORK CITY  MOCLDY    39  22  50 SW12      30.20R WCI  32          
$$
 
ANZALL-281400-
MARINE OBSERVATIONS
  
STATION/POSITION TIME  TEMP    WIND        PRES    VSBY  WAVE
                       AIR SEA DIR/SP/G                  HT/PER
                 (UTC) (F)     (DEG/KT/KT) (MB)    (MI)  (FT/S)
BOSTON BUOY      1240      42                N/A           3/ 9
BUZZARDS BAY     1200   42     230/ 24/ 25 1023.2S
NANTUCKET SOUND  1250   43 42  210/ 16/ 19 1023.4R         1/ 3
MASS BAY-STELLWA 1104   39 42  210/ 21/ 25 1020.5R  1 7/8  3/ 4
ISLE OF SHOALS   1200   37     200/ 24/ 27 1019.8F
S OF BLOCK IS    1256      44                N/A           5/ 6
$$

......................KEY.........................
  SKY/WX - SKY CONDITION/PRESENT WEATHER
  TMP    - TEMPERATURE IN FAHRENHEIT
  DWPT   - DEWPOINT IN FAHRENHEIT
  RH     - RELATIVE HUMIDITY IN PERCENT
  WIND   - DIRECTION AND SPEED IN MPH
  PRES   - MEAN SEA LEVEL PRESSURE IN INCHES OF HG
  WCI    - WIND CHILL INDEX
  VSB    - VISIBILITY IN MILES
  HX     - HEAT INDEX
  TC     - TEMPERATURE IN CELSIUS
  VRB    - VARIABLE WIND DIRECTION
  N/A    - NOT AVAILABLE
  
      

Other recent Regional Weather Roundups

Sat Jan 28, 9:10pm EST

Sat Jan 28, 8:10pm EST

Sat Jan 28, 7:10pm EST

Sat Jan 28, 6:10pm EST

Sat Jan 28, 5:10pm EST

Sat Jan 28, 4:10pm EST

Sat Jan 28, 3:10pm EST

Sat Jan 28, 2:10pm EST

Sat Jan 28, 1:10pm EST

Sat Jan 28, 12:10pm EST

Sat Jan 28, 11:10am EST

Sat Jan 28, 10:10am EST

Sat Jan 28, 9:10am EST

Sat Jan 28, 7:10am EST

Sat Jan 28, 6:10am EST

Sat Jan 28, 5:10am EST

Sat Jan 28, 4:10am EST

Sat Jan 28, 3:10am EST

Sat Jan 28, 2:10am EST

Sat Jan 28, 1:10am EST

Sat Jan 28, 12:10am EST

Fri Jan 27, 11:10pm EST

Fri Jan 27, 10:10pm EST

Fri Jan 27, 9:10pm EST

Fri Jan 27, 8:10pm EST

Fri Jan 27, 7:10pm EST

Fri Jan 27, 6:10pm EST

Fri Jan 27, 5:10pm EST

Fri Jan 27, 4:10pm EST

Fri Jan 27, 3:10pm EST

Fri Jan 27, 2:10pm EST

Fri Jan 27, 1:10pm EST

Fri Jan 27, 12:10pm EST

Fri Jan 27, 11:10am EST

Fri Jan 27, 10:10am EST

Fri Jan 27, 9:10am EST

Fri Jan 27, 8:10am EST

Fri Jan 27, 7:10am EST

Fri Jan 27, 6:10am EST

Fri Jan 27, 5:10am EST

Fri Jan 27, 4:10am EST

Fri Jan 27, 3:10am EST

Fri Jan 27, 2:10am EST

Fri Jan 27, 1:10am EST

Fri Jan 27, 12:10am EST

Thu Jan 26, 11:10pm EST

Thu Jan 26, 10:10pm EST

Thu Jan 26, 9:10pm EST

Thu Jan 26, 8:10pm EST

Thu Jan 26, 7:10pm EST

Thu Jan 26, 6:10pm EST

Thu Jan 26, 5:10pm EST

Thu Jan 26, 4:10pm EST

Thu Jan 26, 3:10pm EST

Thu Jan 26, 2:10pm EST

Thu Jan 26, 1:10pm EST

Thu Jan 26, 12:10pm EST

Thu Jan 26, 11:10am EST

Thu Jan 26, 10:10am EST

Thu Jan 26, 9:10am EST

Thu Jan 26, 8:10am EST

Thu Jan 26, 7:10am EST

Thu Jan 26, 6:10am EST

Thu Jan 26, 5:10am EST

Thu Jan 26, 4:10am EST

Thu Jan 26, 3:10am EST

Thu Jan 26, 2:10am EST

Thu Jan 26, 1:10am EST

Thu Jan 26, 12:10am EST

Wed Jan 25, 11:10pm EST

Wed Jan 25, 10:10pm EST

Wed Jan 25, 9:10pm EST

Wed Jan 25, 8:10pm EST

Wed Jan 25, 7:10pm EST

Wed Jan 25, 6:10pm EST

Wed Jan 25, 5:10pm EST

Wed Jan 25, 4:10pm EST

Wed Jan 25, 3:10pm EST

Wed Jan 25, 2:10pm EST

Wed Jan 25, 1:10pm EST

Wed Jan 25, 12:10pm EST

Wed Jan 25, 11:10am EST

Wed Jan 25, 10:10am EST

Wed Jan 25, 9:10am EST

Wed Jan 25, 8:10am EST

Wed Jan 25, 7:10am EST

Wed Jan 25, 6:10am EST

Wed Jan 25, 5:10am EST

Wed Jan 25, 4:10am EST

Wed Jan 25, 3:10am EST

Wed Jan 25, 2:10am EST

Wed Jan 25, 1:10am EST

Wed Jan 25, 12:10am EST

Tue Jan 24, 11:10pm EST

Tue Jan 24, 10:10pm EST

Tue Jan 24, 9:10pm EST

Tue Jan 24, 8:10pm EST

Tue Jan 24, 7:10pm EST

Tue Jan 24, 6:10pm EST

Tue Jan 24, 5:10pm EST

Tue Jan 24, 4:10pm EST

Tue Jan 24, 3:10pm EST

Tue Jan 24, 2:10pm EST

Tue Jan 24, 1:10pm EST

Tue Jan 24, 12:10pm EST

Tue Jan 24, 11:10am EST

Tue Jan 24, 10:10am EST

Tue Jan 24, 9:10am EST

Tue Jan 24, 8:10am EST

Tue Jan 24, 7:10am EST

Tue Jan 24, 6:10am EST

Tue Jan 24, 5:10am EST

Tue Jan 24, 4:10am EST

Tue Jan 24, 3:10am EST

Tue Jan 24, 2:10am EST

Tue Jan 24, 1:10am EST

Tue Jan 24, 12:10am EST

Mon Jan 23, 11:10pm EST

Mon Jan 23, 10:10pm EST

Mon Jan 23, 9:10pm EST

Mon Jan 23, 8:10pm EST

Mon Jan 23, 7:10pm EST

Mon Jan 23, 6:10pm EST

Mon Jan 23, 5:10pm EST

Mon Jan 23, 4:10pm EST

Mon Jan 23, 3:10pm EST

Mon Jan 23, 2:10pm EST

Mon Jan 23, 1:10pm EST

Mon Jan 23, 12:10pm EST

Mon Jan 23, 11:10am EST

Mon Jan 23, 10:10am EST

Mon Jan 23, 9:10am EST

Mon Jan 23, 8:10am EST

Mon Jan 23, 7:10am EST

Mon Jan 23, 6:10am EST

Mon Jan 23, 5:10am EST

Mon Jan 23, 4:10am EST

Mon Jan 23, 3:10am EST

Mon Jan 23, 2:10am EST

Mon Jan 23, 1:10am EST

Mon Jan 23, 12:10am EST

Sun Jan 22, 11:10pm EST

Sun Jan 22, 10:10pm EST

Sun Jan 22, 9:10pm EST

Sun Jan 22, 8:10pm EST

Sun Jan 22, 7:10pm EST

Sun Jan 22, 6:10pm EST

Sun Jan 22, 5:10pm EST

Sun Jan 22, 4:10pm EST

Sun Jan 22, 3:10pm EST

Sun Jan 22, 2:10pm EST

Sun Jan 22, 1:10pm EST

Sun Jan 22, 12:10pm EST

Sun Jan 22, 11:10am EST

Sun Jan 22, 10:10am EST

Sun Jan 22, 9:10am EST

Sun Jan 22, 8:10am EST

Sun Jan 22, 7:10am EST

Sun Jan 22, 6:10am EST

Sun Jan 22, 5:10am EST

Sun Jan 22, 4:10am EST

Sun Jan 22, 3:10am EST

Sun Jan 22, 2:10am EST

Sun Jan 22, 1:10am EST

Sun Jan 22, 12:10am EST

Sat Jan 21, 11:10pm EST

Sat Jan 21, 10:10pm EST